Flag for Japan Weather past 2 weeks in Sapporo, Japan

Now
57 °F

Cool.


Feels Like: 54 °F
Forecast: 52 / 76 °F
Wind: 12 mph from Southeast

Location: Sapporo

Current Time: May 29, 2015 at 1:28:56 AM

Latest Report: May 29, 2015 at 12:00 AM


Visibility: N/A

Pressure: 29.87 "Hg

Humidity: 80%

Dew point: 51 °F

Location of SapporoLocation

Historic Weather in Sapporo — Graph

°F

Sapporo temperature yesterday

Maximum temperature yesterday: 70 °F (at 1:00 PM)
Minimum temperature yesterday: 48 °F (at 4:00 AM)
Average temperature yesterday: 60 °F

Past Weeks' High & Low Weather Summary

 TemperatureHumidityPressure
High71 °F (May 22, 2:00 PM)93% (May 14, 5:00 AM)29.97 "Hg (May 14, 5:00 AM)
Low45 °F (May 18, 4:00 AM)24% (May 25, 2:00 PM)29.44 "Hg (May 20, 2:00 PM)
Average56 °F63%29.72 "Hg
* Reported Midnight between May 13 and May 14 — Midnight between May 28 and May 29, Sapporo, Weather by CustomWeather, © 2015

Note: Actual official high and low records may vary slightly from our data, if they occured in-between our weather recording intervals... More about our weather records

Advertising

Sapporo weather history for previous 24 hours

 ConditionsComfort  
Time TempWeatherWind HumidityBarometerVisibility
12:00 AM
Fri, May 29
57 °FCool.12 mph80%29.87 "HgN/A
11:00 PM
Thu, May 28
58 °FCool.9 mph78%29.89 "HgN/A
10:00 PM58 °FCool.10 mph78%29.90 "HgN/A
9:00 PM58 °FPassing clouds.13 mph76%29.92 "Hg12 mi
8:00 PM58 °FCool.16 mph74%29.92 "HgN/A
7:00 PM59 °FCool.20 mph71%29.92 "HgN/A
6:00 PM61 °FPassing clouds.16 mph61%29.92 "Hg12 mi
5:00 PM65 °FMild.16 mph56%29.91 "HgN/A
4:00 PM67 °FMild.18 mph48%29.92 "HgN/A
3:00 PM68 °FScattered clouds.24 mph49%29.92 "Hg12 mi
2:00 PM66 °FMild.24 mph53%29.91 "HgN/A
1:00 PM70 °FMild.24 mph47%29.90 "HgN/A
12:00 PM70 °FPassing clouds.16 mph45%29.93 "Hg12 mi
11:00 AM69 °FMild.15 mph42%29.94 "HgN/A
10:00 AM69 °FMild.15 mph41%29.94 "HgN/A
9:00 AM68 °FScattered clouds.18 mph43%29.95 "Hg12 mi
8:00 AM64 °FMild.12 mph45%29.96 "HgN/A
7:00 AM59 °FRefreshingly cool.14 mph48%29.96 "HgN/A
5:00 AM49 °FCool.8 mph68%29.97 "HgN/A
4:00 AM48 °FCool.12 mph77%29.97 "HgN/A
3:00 AM50 °FPassing clouds.13 mph74%29.97 "Hg12 mi
2:00 AM51 °FCool.12 mph71%29.96 "HgN/A
1:00 AM51 °FCool.13 mph77%29.96 "HgN/A
Weather by CustomWeather, © 2015

See weather overviewHow to use our weather pages